This is the latest recevied weather packets stored in our database for station/object SP7WMI-13. If no packets are shown the sender has not sent any weather packets the latest 10 day(s).
| Time | Temp. | Humidity | Pressure | Rain* | Wind** | Luminosity | Snow |
|---|---|---|---|---|---|---|---|
| 1777647167 | 21.11° C | 34% | 1022.9 hPa | 0 mm | - | - | - |
| 1777645361 | 21.11° C | 34% | 1023.1 hPa | 0 mm | - | - | - |
| 1777644458 | 21.11° C | 34% | 1023.1 hPa | 0 mm | - | - | - |
| 1777643555 | 22.22° C | 34% | 1023.3 hPa | 0 mm | - | - | - |
| 1777642654 | 21.67° C | 34% | 1023.3 hPa | 0 mm | - | - | - |
| 1777641445 | 22.78° C | 33% | 1023.5 hPa | 0 mm | - | - | - |
| 1777640917 | 23.33° C | 33% | 1023.5 hPa | 0 mm | - | - | - |
| 1777640014 | 23.33° C | 35% | 1023.6 hPa | 0 mm | - | - | - |
| 1777637305 | 21.11° C | 40% | 1024.2 hPa | 0 mm | - | - | - |
| 1777635499 | 18.89° C | 44% | 1024.3 hPa | 0 mm | - | - | - |
| 1777634596 | 18.33° C | 46% | 1024.3 hPa | 0 mm | - | - | - |
| 1777633693 | 18.33° C | 46% | 1024.4 hPa | 0 mm | - | - | - |
| 1777632788 | 17.22° C | 50% | 1024.5 hPa | 0 mm | - | - | - |
| 1777631885 | 16.11° C | 50% | 1024.5 hPa | 0 mm | - | - | - |
| 1777630982 | 16.11° C | 51% | 1024.5 hPa | 0 mm | - | - | - |
| 1777630079 | 15.56° C | 51% | 1024.5 hPa | 0 mm | - | - | - |
| 1777629176 | 15.56° C | 51% | 1024.5 hPa | 0 mm | - | - | - |
| 1777628273 | 15° C | 52% | 1024.7 hPa | 0 mm | - | - | - |
| 1777627369 | 15° C | 52% | 1024.9 hPa | 0 mm | - | - | - |
| 1777626466 | 14.44° C | 53% | 1024.8 hPa | 0 mm | - | - | - |
| 1777625564 | 13.89° C | 54% | 1024.8 hPa | 0 mm | - | - | - |
| 1777581303 | 12.22° C | 45% | 1025.6 hPa | 0 mm | - | - | - |
| 1777580400 | 12.22° C | 46% | 1025.6 hPa | 0 mm | - | - | - |
| 1777579497 | 12.22° C | 46% | 1025.7 hPa | 0 mm | - | - | - |
| 1777578594 | 12.22° C | 44% | 1025.7 hPa | 0 mm | - | - | - |
* Rain since midnight (hover to see other rain measurements)
** Current wind speed in m/s (hover to see current wind gust speed)